Vorticity
3 5 -5 8 11 10 5 3 4 4 7 7 7 5 6 6 11 13 8 5 -3 0 9 9 8 8 6 6 4 -0 3 8 3 7 6 7 9 10 10 10 9 9 9 8
-3 -1 5 5 1 2 1 5 2 5 10 10 6 7 6 3 5 7 5 8 12 11 9 9 8 7 4 5 4 -1 4 7 5 5 5 7 10 12 10 9 9 9 10 10
9 -7 -2 12 4 10 9 9 9 9 10 5 9 10 19 19 16 9 6 7 1 -3 12 12 8 8 6 5 5 -1 3 5 7 6 7 6 8 9 8 9 10 9 8 6
34 25 16 5 3 4 5 8 -1 12 17 4 13 1 8 -21 -1 6 19 22 3 9 0 12 7 5 6 0 2 1 2 5 9 7 7 5 7 9 10 8 7 4 5 5
-21 14 13 25 22 26 8 13 15 13 15 12 26 14 -11 6 3 9 16 26 25 22 9 12 13 5 10 3 1 -0 -0 4 12 7 8 5 5 7 6 7 8 8 7 8
0 -11 -6 7 18 18 17 17 15 13 16 29 20 -9 21 26 21 37 40 28 19 18 14 17 15 9 3 2 2 3 1 4 12 9 9 5 5 4 5 6 5 6 8 7
31 22 17 11 2 -9 5 8 9 14 10 -4 24 20 -52 -40 -25 -20 -10 26 25 38 19 16 14 6 5 3 3 3 4 5 10 10 8 5 5 4 5 4 6 8 6 7
10 18 27 46 53 9 31 -4 -31 11 2 0 44 8 -10 -5 -15 17 37 15 4 -1 21 15 13 9 1 5 6 4 3 8 10 11 9 6 4 4 4 5 5 5 6 6
3 18 23 -14 -4 24 42 10 27 -16 10 7 -4 19 2 16 -1 -14 10 20 -13 -32 -5 12 15 15 9 9 10 9 9 10 10 11 7 5 5 4 4 3 5 5 6 6
5 16 31 17 1 4 24 -3 2 8 12 8 19 17 -36 -30 -11 -9 4 -10 3 21 16 14 15 16 13 16 16 11 9 9 9 7 6 6 6 4 2 4 6 7 7 7
13 10 1 -2 20 1 21 25 15 14 -3 3 8 6 -6 14 26 20 28 44 45 18 13 14 7 16 19 19 16 14 11 11 11 12 9 7 4 3 6 6 8 8 7 7
22 3 9 -17 4 10 21 11 14 30 20 1 2 18 8 18 18 39 5 -42 -22 -8 10 22 21 4 3 21 24 18 15 7 10 9 8 4 5 7 7 8 8 7 6 7
-20 4 12 18 33 4 -24 -26 9 12 18 13 8 2 5 -36 -31 -38 -28 -17 14 36 24 22 15 10 17 25 23 19 12 4 5 9 9 8 9 8 9 8 7 5 7 6
7 10 -6 -26 -39 -5 9 9 6 -18 7 -3 -22 -17 13 13 19 23 42 45 6 11 -4 -8 8 13 14 26 27 20 3 14 5 9 18 -2 11 9 -1 4 8 7 6 10
23 15 24 14 9 15 5 4 10 7 -6 7 -21 -3 10 16 14 20 43 29 24 20 9 15 14 19 19 25 18 6 9 1 19 -8 14 -1 -5 -2 11 12 5 7 9 8
-18 11 4 4 7 19 7 11 11 13 10 10 31 -10 29 3 15 -3 21 35 12 17 22 17 10 21 23 26 8 7 13 -11 9 38 -3 8 3 10 -9 1 5 10 9 10
-9 -8 11 6 15 21 40 9 21 26 14 25 -6 0 22 -4 20 7 30 29 18 29 19 9 12 17 17 10 8 -1 15 10 3 8 14 16 19 35 18 7 7 11 9 10
6 -1 6 1 14 13 -7 18 16 10 -4 -1 15 24 20 15 3 7 29 18 36 14 18 20 26 31 19 12 3 -6 12 10 10 12 17 19 16 8 8 6 10 8 8 9
28 37 -6 -9 3 -23 -3 1 -2 23 -7 21 3 17 24 20 20 16 17 30 16 11 46 7 11 9 -2 21 31 9 4 4 3 18 21 18 -2 2 4 9 12 10 10 11
26 38 8 -16 3 3 10 17 10 10 3 27 32 16 -2 12 11 15 6 -3 14 27 12 2 8 7 -2 6 11 1 3 -14 16 -18 14 14 0 9 8 13 9 9 10 10
11 24 13 13 -11 12 -6 4 14 17 -10 16 11 -4 -2 0 -1 1 10 7 6 4 8 5 -1 12 31 22 16 23 24 25 22 5 11 12 7 5 14 9 9 9 10 9
9 4 -12 29 50 21 19 28 7 11 12 7 5 3 -4 2 15 5 6 15 11 10 7 2 4 9 16 6 8 3 5 25 46 8 8 3 7 21 10 10 7 9 10 9
32 8 -13 0 -32 -9 15 14 20 40 -10 -7 4 9 20 19 16 10 10 13 14 13 13 15 19 15 5 7 11 12 16 11 8 16 -4 2 12 17 10 13 7 9 9 9
-2 21 -8 12 22 16 5 27 25 -6 6 4 8 10 7 7 15 8 9 9 8 11 10 9 13 14 19 29 25 24 20 31 -0 9 -4 5 10 18 12 8 10 10 9 9
-17 -43 42 11 -1 8 30 9 -1 -4 7 10 10 9 8 10 9 8 15 9 8 3 8 8 11 13 11 20 14 6 0 9 19 5 1 4 12 15 10 9 7 8 9 9
-2 15 43 -21 21 18 -4 13 -3 4 10 13 8 7 7 7 6 6 9 12 17 9 7 17 13 11 14 12 8 12 9 14 11 10 -3 5 10 15 14 14 11 9 11 10
Height
3101 3100 3102 3105 3105 3104 3106 3107 3107 3108 3111 3108 3103 3097 3101 3104 3102 3105 3108 3111 3113 3116 3117 3118 3119 3120 3122 3124 3126 3128 3130 3130 3130 3128 3126 3125 3124 3122 3122 3122 3121 3121 3121 3121
3096 3090 3098 3099 3099 3099 3099 3100 3101 3102 3105 3102 3098 3084 3090 3093 3092 3095 3099 3101 3105 3107 3108 3110 3111 3112 3115 3117 3119 3121 3123 3124 3124 3122 3121 3121 3119 3119 3118 3118 3118 3117 3116 3116
3089 3088 3091 3091 3091 3092 3091 3091 3095 3098 3099 3097 3094 3067 3078 3079 3083 3086 3089 3092 3096 3097 3099 3100 3103 3106 3108 3110 3112 3114 3116 3117 3118 3117 3116 3116 3115 3115 3115 3114 3113 3112 3111 3111
3081 3080 3082 3084 3084 3089 3084 3086 3090 3092 3094 3092 3093 3063 3067 3069 3071 3073 3079 3083 3086 3087 3089 3091 3094 3097 3100 3104 3105 3107 3108 3110 3111 3111 3111 3111 3111 3111 3110 3110 3109 3108 3107 3106
3075 3073 3076 3077 3081 3083 3080 3081 3086 3087 3088 3087 3085 3088 3035 3063 3061 3064 3068 3070 3074 3076 3080 3083 3086 3088 3092 3095 3097 3099 3101 3102 3103 3104 3105 3105 3104 3105 3105 3104 3103 3103 3102 3101
3068 3072 3073 3074 3075 3079 3081 3080 3081 3081 3085 3079 3074 3083 3040 3060 3057 3058 3061 3061 3064 3066 3071 3075 3078 3080 3083 3086 3088 3090 3092 3094 3096 3098 3099 3099 3098 3098 3098 3098 3098 3098 3096 3094
3065 3065 3067 3071 3073 3075 3077 3078 3078 3078 3079 3068 3070 3072 3041 3049 3055 3054 3058 3057 3058 3059 3063 3066 3069 3071 3073 3077 3080 3081 3083 3086 3088 3090 3092 3092 3092 3092 3092 3092 3092 3091 3091 3089
3060 3063 3064 3066 3068 3069 3071 3074 3074 3070 3069 3064 3068 3058 3045 3046 3047 3050 3054 3055 3054 3054 3055 3058 3061 3064 3066 3069 3072 3074 3075 3078 3081 3082 3084 3085 3086 3086 3086 3086 3085 3085 3085 3083
3058 3059 3060 3062 3064 3067 3065 3069 3067 3067 3068 3067 3062 3052 3042 3042 3045 3047 3047 3049 3051 3051 3051 3051 3053 3055 3058 3060 3063 3065 3067 3070 3072 3074 3076 3078 3079 3080 3079 3079 3079 3079 3078 3078
3057 3057 3058 3061 3060 3063 3063 3066 3065 3066 3063 3056 3051 3048 3039 3041 3045 3045 3043 3044 3047 3046 3045 3045 3047 3047 3048 3050 3052 3055 3058 3061 3063 3065 3068 3071 3073 3073 3072 3073 3074 3073 3072 3072
3055 3056 3054 3056 3057 3058 3060 3059 3060 3061 3060 3051 3045 3041 3040 3040 3039 3038 3037 3037 3037 3037 3038 3037 3039 3040 3040 3039 3041 3045 3050 3053 3056 3058 3061 3063 3065 3066 3066 3067 3067 3066 3064 3065
3053 3053 3051 3052 3053 3054 3055 3054 3055 3056 3054 3050 3045 3038 3037 3037 3037 3035 3035 3032 3032 3030 3029 3030 3031 3031 3031 3030 3031 3035 3041 3045 3048 3051 3053 3056 3057 3058 3059 3059 3060 3060 3059 3059
3052 3053 3050 3044 3048 3048 3049 3050 3052 3051 3049 3044 3041 3035 3033 3029 3025 3026 3023 3024 3024 3022 3021 3021 3023 3022 3020 3019 3022 3027 3033 3037 3041 3044 3047 3048 3050 3051 3051 3052 3053 3053 3053 3051
3049 3048 3048 3046 3042 3044 3043 3045 3047 3046 3045 3039 3034 3030 3025 3019 3012 3012 3009 3009 3012 3014 3014 3013 3013 3012 3012 3011 3015 3020 3023 3027 3032 3036 3039 3042 3043 3043 3044 3046 3047 3046 3046 3045
3041 3038 3040 3039 3036 3036 3035 3036 3037 3035 3033 3034 3025 3022 3019 3011 3005 3002 2997 2996 2998 3000 3002 3002 3002 3001 3002 3005 3008 3012 3015 3018 3025 3028 3030 3033 3035 3036 3038 3039 3040 3041 3039 3038
3035 3033 3032 3030 3030 3029 3028 3027 3024 3025 3022 3019 3015 3011 3009 3005 3001 2995 2989 2988 2989 2990 2990 2990 2993 2993 2994 2998 3002 3004 3006 3009 3013 3016 3021 3023 3027 3029 3031 3032 3033 3034 3033 3031
3030 3028 3028 3024 3024 3024 3022 3014 3015 3014 3012 3010 3008 3006 3001 2997 2997 2991 2985 2982 2980 2980 2981 2981 2982 2987 2986 2987 2991 2995 2999 3001 3004 3009 3013 3014 3016 3019 3022 3025 3027 3028 3027 3027
3018 3021 3024 3019 3020 3014 3008 3008 3008 3007 3005 3003 2999 2996 2996 2992 2991 2988 2985 2980 2976 2973 2972 2974 2975 2977 2979 2981 2983 2989 2992 2995 2999 3004 3005 3006 3010 3013 3018 3019 3019 3022 3020 3021
3008 3011 3013 3013 3008 3004 3000 3002 3003 3000 2996 2995 2992 2991 2991 2990 2987 2985 2979 2977 2973 2971 2970 2969 2969 2970 2973 2975 2978 2983 2987 2990 2995 2997 2999 3002 3006 3009 3012 3013 3015 3016 3016 3017
3001 3002 3007 3005 3002 2995 2988 2994 2994 2993 2991 2991 2988 2988 2988 2986 2983 2982 2979 2975 2971 2968 2968 2968 2967 2967 2967 2970 2974 2978 2981 2985 2986 2989 2995 2997 3001 3004 3007 3008 3009 3010 3011 3012
2997 2995 2993 2990 2993 2984 2981 2987 2989 2992 2990 2985 2986 2986 2985 2983 2981 2979 2977 2975 2971 2969 2966 2967 2968 2968 2968 2969 2972 2973 2977 2978 2984 2987 2991 2994 2997 2998 3000 3002 3004 3005 3006 3009
2988 2989 2982 2984 2981 2977 2977 2982 2982 2982 2983 2983 2983 2983 2981 2979 2977 2975 2974 2972 2970 2969 2967 2967 2966 2966 2967 2968 2970 2971 2971 2975 2978 2984 2986 2989 2992 2995 2996 2997 2999 3000 3002 3004
2979 2978 2977 2979 2973 2975 2974 2974 2975 2976 2979 2978 2978 2978 2976 2974 2972 2970 2968 2967 2966 2965 2964 2963 2962 2962 2964 2965 2967 2970 2971 2973 2976 2978 2981 2986 2989 2990 2991 2992 2993 2995 2996 2998
2970 2972 2969 2972 2963 2967 2970 2970 2971 2972 2973 2973 2972 2972 2971 2970 2968 2966 2964 2963 2962 2961 2961 2961 2961 2961 2961 2962 2963 2965 2968 2967 2970 2975 2979 2982 2984 2985 2987 2988 2988 2990 2993 2994
2963 2962 2961 2957 2959 2962 2962 2965 2967 2967 2967 2967 2968 2967 2966 2965 2964 2962 2960 2958 2957 2957 2956 2957 2957 2958 2959 2960 2962 2964 2966 2968 2971 2973 2975 2978 2978 2980 2981 2981 2983 2985 2988 2989
2954 2954 2954 2946 2953 2956 2960 2962 2962 2963 2962 2962 2962 2961 2960 2959 2958 2957 2955 2953 2952 2951 2951 2951 2953 2954 2955 2957 2958 2961 2963 2964 2967 2969 2971 2972 2974 2975 2975 2976 2978 2981 2983 2985